Hourly Weather Godzieby

Today, 29 November, Sunday

Time Temperature Precipitation Wind Pressure Humidity
00:00 0°C° 0.3 mm 3 mps 754 mmHg 94%
01:00 -1°C° 0 mm 4 mps 754 mmHg 94%
02:00 -1°C° 0.1 mm 4 mps 754 mmHg 94%
03:00 -1°C° 0.1 mm 4 mps 754 mmHg 94%
04:00 0°C° 0.1 mm 3 mps 753 mmHg 93%
05:00 0°C° 0.1 mm 3 mps 753 mmHg 92%
06:00 0°C° 0.1 mm 3 mps 754 mmHg 90%
07:00 +1°C° 0 mm 2 mps 754 mmHg 90%
08:00 0°C° 0 mm 3 mps 754 mmHg 88%
09:00 0°C° 0 mm 3 mps 754 mmHg 87%
10:00 0°C° 0 mm 3 mps 754 mmHg 86%
11:00 0°C° 0.1 mm 3 mps 754 mmHg 83%
12:00 0°C° 0.1 mm 3 mps 754 mmHg 80%
13:00 +2°C° 0 mm 2 mps 754 mmHg 75%
14:00 +1°C° 0 mm 2 mps 754 mmHg 77%
15:00 +1°C° 0 mm 2 mps 754 mmHg 78%
16:00 +1°C° 0 mm 1 mps 754 mmHg 80%
17:00 +1°C° 0 mm 1 mps 755 mmHg 81%
18:00 0°C° 0 mm 1 mps 755 mmHg 82%
19:00 0°C° 0 mm 1 mps 755 mmHg 83%
20:00 0°C° 0 mm 1 mps 755 mmHg 83%
21:00 0°C° 0 mm 1 mps 755 mmHg 82%
22:00 -1°C° 0 mm 0 mps 755 mmHg 82%
23:00 0°C° 0 mm 1 mps 756 mmHg 82%

Tomorrow, 30 November, Monday

Time Temperature Precipitation Wind Pressure Humidity
00:00 0°C° 0 mm 1 mps 756 mmHg 83%
01:00 0°C° 0 mm 1 mps 756 mmHg 84%
02:00 0°C° 0 mm 1 mps 756 mmHg 85%
03:00 0°C° 0 mm 1 mps 755 mmHg 86%
04:00 -3°C° 0 mm 2 mps 755 mmHg 86%
05:00 -1°C° 0 mm 1 mps 755 mmHg 87%
06:00 -1°C° 0 mm 1 mps 756 mmHg 87%
07:00 -1°C° 0 mm 1 mps 756 mmHg 87%
08:00 -2°C° 0 mm 2 mps 756 mmHg 84%
09:00 -2°C° 0 mm 2 mps 756 mmHg 81%
10:00 -1°C° 0 mm 2 mps 756 mmHg 79%
11:00 -1°C° 0 mm 3 mps 756 mmHg 80%
12:00 0°C° 0 mm 3 mps 756 mmHg 81%
13:00 0°C° 0 mm 3 mps 756 mmHg 82%
14:00 0°C° 0.1 mm 3 mps 756 mmHg 87%
15:00 0°C° 0.1 mm 3 mps 756 mmHg 92%
16:00 -1°C° 0.1 mm 3 mps 755 mmHg 96%
17:00 -1°C° 0.1 mm 3 mps 756 mmHg 96%
18:00 -1°C° 0.1 mm 3 mps 756 mmHg 95%
19:00 -1°C° 0.1 mm 3 mps 756 mmHg 94%
20:00 -1°C° 0 mm 3 mps 755 mmHg 94%
21:00 -2°C° 0 mm 3 mps 755 mmHg 94%
22:00 -2°C° 0 mm 3 mps 755 mmHg 93%
23:00 -2°C° 0 mm 2 mps 755 mmHg 91%

Day after tomorrow, 1 December, Tuesday

Time Temperature Precipitation Wind Pressure Humidity
00:00 -1°C° 0 mm 2 mps 755 mmHg 89%
01:00 -1°C° 0 mm 2 mps 754 mmHg 87%
02:00 -1°C° 0 mm 3 mps 754 mmHg 86%
03:00 -1°C° 0 mm 3 mps 754 mmHg 85%
04:00 -2°C° 0 mm 4 mps 754 mmHg 84%
05:00 -2°C° 0 mm 4 mps 753 mmHg 85%
06:00 -3°C° 0 mm 4 mps 753 mmHg 86%
07:00 -3°C° 0 mm 4 mps 753 mmHg 86%
08:00 -3°C° 0 mm 4 mps 753 mmHg 82%
09:00 -2°C° 0 mm 4 mps 754 mmHg 77%
10:00 -2°C° 0 mm 5 mps 754 mmHg 72%
11:00 -1°C° 0 mm 4 mps 754 mmHg 70%
12:00 -1°C° 0 mm 4 mps 754 mmHg 67%
13:00 0°C° 0 mm 4 mps 754 mmHg 65%
14:00 -1°C° 0 mm 4 mps 754 mmHg 69%
15:00 -1°C° 0 mm 3 mps 754 mmHg 72%
16:00 -2°C° 0 mm 3 mps 754 mmHg 76%
17:00 -2°C° 0 mm 3 mps 754 mmHg 78%
18:00 -2°C° 0 mm 3 mps 755 mmHg 79%
19:00 -2°C° 0 mm 3 mps 755 mmHg 80%
20:00 -4°C° 0 mm 3 mps 755 mmHg 81%
21:00 -4°C° 0 mm 3 mps 756 mmHg 82%
22:00 -4°C° 0 mm 3 mps 756 mmHg 83%
23:00 -4°C° 0 mm 3 mps 756 mmHg 84%

2 December, Wednesday

Time Temperature Precipitation Wind Pressure Humidity
00:00 -4°C° 0 mm 3 mps 756 mmHg 85%
01:00 -4°C° 0 mm 3 mps 756 mmHg 86%
02:00 -4°C° 0 mm 3 mps 756 mmHg 85%
03:00 -4°C° 0 mm 3 mps 756 mmHg 85%
04:00 -4°C° 0 mm 3 mps 756 mmHg 85%
05:00 -5°C° 0 mm 3 mps 756 mmHg 84%
06:00 -5°C° 0 mm 3 mps 756 mmHg 84%
07:00 -5°C° 0 mm 3 mps 756 mmHg 83%
08:00 -4°C° 0 mm 3 mps 756 mmHg 79%
09:00 -4°C° 0 mm 4 mps 756 mmHg 76%
10:00 -3°C° 0 mm 4 mps 756 mmHg 72%
11:00 -3°C° 0 mm 4 mps 755 mmHg 69%
12:00 -2°C° 0 mm 4 mps 755 mmHg 66%
13:00 -2°C° 0 mm 4 mps 755 mmHg 63%
14:00 -3°C° 0 mm 4 mps 754 mmHg 66%
15:00 -2°C° 0 mm 3 mps 754 mmHg 70%
16:00 -4°C° 0 mm 3 mps 753 mmHg 74%
17:00 -4°C° 0 mm 3 mps 753 mmHg 77%
18:00 -4°C° 0 mm 4 mps 753 mmHg 81%
19:00 -4°C° 0 mm 4 mps 753 mmHg 85%
20:00 -4°C° 0 mm 4 mps 753 mmHg 87%
21:00 -4°C° 0 mm 4 mps 753 mmHg 89%
22:00 -4°C° 0 mm 4 mps 753 mmHg 91%
23:00 -4°C° 0 mm 4 mps 753 mmHg 91%

3 December, Thursday

Time Temperature Precipitation Wind Pressure Humidity
00:00 -4°C° 0 mm 4 mps 752 mmHg 91%
01:00 -4°C° 0 mm 4 mps 752 mmHg 90%
02:00 -4°C° 0 mm 4 mps 752 mmHg 89%
03:00 -4°C° 0 mm 3 mps 751 mmHg 88%
04:00 -4°C° 0 mm 3 mps 751 mmHg 86%
05:00 -4°C° 0 mm 3 mps 751 mmHg 87%
06:00 -5°C° 0 mm 3 mps 751 mmHg 89%
07:00 -5°C° 0 mm 3 mps 750 mmHg 90%
08:00 -4°C° 0 mm 3 mps 750 mmHg 86%
09:00 -4°C° 0 mm 3 mps 750 mmHg 82%
10:00 -2°C° 0 mm 3 mps 750 mmHg 78%
11:00 -2°C° 0 mm 3 mps 749 mmHg 74%
12:00 -1°C° 0 mm 3 mps 749 mmHg 71%
13:00 -1°C° 0 mm 3 mps 749 mmHg 67%
14:00 -1°C° 0 mm 3 mps 749 mmHg 68%
15:00 -2°C° 0 mm 3 mps 748 mmHg 70%
16:00 -2°C° 0 mm 3 mps 748 mmHg 71%
17:00 -2°C° 0 mm 3 mps 748 mmHg 69%
18:00 -2°C° 0 mm 4 mps 748 mmHg 67%
19:00 -2°C° 0 mm 4 mps 747 mmHg 64%
20:00 -2°C° 0 mm 4 mps 747 mmHg 65%
21:00 -2°C° 0 mm 4 mps 747 mmHg 66%
22:00 -2°C° 0 mm 4 mps 746 mmHg 67%
23:00 -2°C° 0 mm 4 mps 746 mmHg 70%

4 December, Friday

Time Temperature Precipitation Wind Pressure Humidity
00:00 -2°C° 0 mm 5 mps 745 mmHg 72%
01:00 -2°C° 0 mm 5 mps 744 mmHg 75%
02:00 -2°C° 0 mm 5 mps 744 mmHg 76%
03:00 -2°C° 0 mm 5 mps 743 mmHg 77%
04:00 -2°C° 0 mm 5 mps 743 mmHg 77%
05:00 -2°C° 0 mm 5 mps 743 mmHg 77%
06:00 -2°C° 0 mm 5 mps 743 mmHg 76%
07:00 -2°C° 0 mm 5 mps 743 mmHg 75%
08:00 -1°C° 0 mm 5 mps 743 mmHg 73%
09:00 -1°C° 0 mm 5 mps 743 mmHg 70%
10:00 0°C° 0 mm 5 mps 742 mmHg 67%
11:00 +1°C° 0 mm 5 mps 742 mmHg 66%
12:00 +1°C° 0 mm 6 mps 742 mmHg 65%
13:00 +2°C° 0 mm 6 mps 741 mmHg 64%
14:00 +1°C° 0 mm 6 mps 741 mmHg 69%
15:00 0°C° 0 mm 5 mps 741 mmHg 75%
16:00 0°C° 0 mm 5 mps 741 mmHg 80%
17:00 0°C° 0 mm 5 mps 741 mmHg 82%
18:00 0°C° 0 mm 5 mps 741 mmHg 83%
19:00 0°C° 0 mm 5 mps 741 mmHg 84%
20:00 0°C° 0 mm 5 mps 741 mmHg 84%
21:00 0°C° 0 mm 5 mps 741 mmHg 85%
22:00 +1°C° 0 mm 5 mps 741 mmHg 85%
23:00 +1°C° 0 mm 5 mps 741 mmHg 85%
Show more

We Need Your Consent

Meteoprog and our Service Providers may store and access personal data such as cookies, device identifiers or other similar technologies on your device and process such data to personalise content and ads, as well as provide social media features and to analyse the traffic.

  • Store and/or access information on your device

    Cookies, device identifiers or other information can be stored or accessed on your device for the purposes indicated above.

  • Personalised ads and content, ad and content measurement, audience insights, and products development

    Ads and content can be personalised based on a profile. More data can be added to better personalise ads and content. Ad and content performance can be measured. Insights about the audience who saw the ads and content can be derived. Such data can be used to develop or improve user’s experience, systems and software.

By clicking ‘I Agree’ you will allow the use of indicated cookies, device identifiers, web beacons or other similar technologies. Your settings can be changed in the browser on your device.

For certain purposes, legitimate interests may be relied on, rather than consent. You can read more about this in our Privacy and Cookie Policy.